Bookmark and Share
Track history (hours):
 

Taurus

More information available from US FCC via Universal Licensing System and Coast Guard Vessel Documentation Center.

Last reported at 2014-Apr-24 21:33 UTC. Time now 2014-Apr-24 22:08 UTC.
Position N 37°48' W 122°24'.

Length 35 m.

Type: Passenger vessel. MMSI: 367436230.

NotesDate/timePositionNaut miles runAvg speedWind from/ knotsBaromVisibWave heightAir tempDewpointWater temp
2014-Apr-24 21:33N 37°48' W 122°24'0 0.2
2014-Apr-24 20:33N 37°48' W 122°24'0 0.0
2014-Apr-24 19:33N 37°48' W 122°24'0 0.0
2014-Apr-24 18:33N 37°48' W 122°24'0 0.0
2014-Apr-24 16:33N 37°48' W 122°24'5 5.3
2014-Apr-24 15:34N 37°43' W 122°21'1 0.7
2014-Apr-24 14:34N 37°43' W 122°20'5 5.4
2014-Apr-24 13:33N 37°48' W 122°17'5 5.1
2014-Apr-24 12:33N 37°48' W 122°24'  
2014-Apr-18 01:32N 37°48' W 122°24'2 1.9
2014-Apr-18 00:34N 37°48' W 122°21'2 1.9
2014-Apr-17 23:34N 37°48' W 122°24'0 0.0
2014-Apr-17 19:15N 37°48' W 122°24'0 0.6
2014-Apr-17 18:33N 37°48' W 122°24'5 5.3
2014-Apr-17 17:33N 37°48' W 122°17'6 6.4
2014-Apr-17 16:33N 37°49' W 122°25'7 6.7
2014-Apr-17 15:34N 37°43' W 122°21'2 1.8
2014-Apr-17 14:34N 37°45' W 122°21'4 4.2
2014-Apr-17 13:33N 37°48' W 122°17'  
2014-Apr-15 02:34N 37°48' W 122°24'0 0.4
2014-Apr-15 01:34N 37°48' W 122°24'0 0.0
2014-Apr-15 00:34N 37°48' W 122°24'0 0.0
2014-Apr-14 23:34N 37°48' W 122°24'0 0.0
2014-Apr-14 22:34N 37°48' W 122°24'0 0.4
2014-Apr-14 21:34N 37°48' W 122°24'  

Dump ship's entire track history

sailing weather and tide predictions

Taurus — WDF3127 — position and weather